| time (UTC) | temp F | wind direction | speed MPH | gust MPH | rain 1hr in | rain 24hr in | rain mn in | humidity % | barometer mb |
| 20260503200003 | 64 | 204 | 1.0 | 6.0 | 0.00 | 0.00 | 0.00 | 62 | 891.3 |
| 20260503195004 | 64 | 47 | 0.0 | 0.0 | 0.00 | 0.00 | 0.00 | 62 | 891.3 |
| 20260503194004 | 63 | 48 | 0.0 | 3.0 | 0.00 | 0.00 | 0.00 | 62 | 890.6 |
| 20260503193004 | 62 | 17 | 0.0 | 3.0 | 0.00 | 0.00 | 0.00 | 62 | 890.6 |
| 20260503192004 | 62 | 313 | 2.0 | 6.0 | 0.00 | 0.00 | 0.00 | 61 | 830.5 |
| 20260503190004 | 61 | 359 | 3.0 | 7.0 | 0.00 | 0.00 | 0.00 | 59 | 823.4 |
| 20260503182005 | 60 | 320 | 1.0 | 6.0 | 0.00 | 0.00 | 0.00 | 50 | 824.9 |
| 20260503181004 | 59 | 262 | 2.0 | 5.0 | 0.00 | 0.00 | 0.00 | 48 | 824.9 |
| 20260503180005 | 59 | 304 | 2.0 | 6.0 | 0.00 | 0.00 | 0.00 | 45 | 824.9 |
| 20260503175004 | 59 | 244 | 2.0 | 10.0 | 0.00 | 0.00 | 0.00 | 42 | 824.9 |
| 20260503174004 | 59 | 335 | 1.0 | 6.0 | 0.00 | 0.00 | 0.00 | 39 | 824.9 |
| 20260503173004 | 58 | 296 | 2.0 | 6.0 | 0.00 | 0.00 | 0.00 | 35 | 891.7 |
| 20260503172004 | 58 | 314 | 1.0 | 5.0 | 0.00 | 0.00 | 0.00 | 34 | 830.2 |
| 20260503171004 | 58 | 236 | 0.0 | 5.0 | 0.00 | 0.00 | 0.00 | 33 | 824.7 |
| 20260503151004 | 55 | 208 | 4.0 | 6.0 | 0.00 | 0.00 | 0.00 | 3 | 951.8 |
| 20260503081004 | 55 | 298 | 0.0 | 0.0 | 0.00 | 0.00 | 0.00 | 17 | 871.3 |
| 20260503072004 | 55 | 298 | 0.0 | 0.0 | 0.00 | 0.00 | 0.00 | 19 | 871.3 |
| 20260503071004 | 55 | 298 | 0.0 | 0.0 | 0.00 | 0.00 | 0.00 | 20 | 871.3 |
| 20260503055004 | 54 | 281 | 0.0 | 0.0 | 0.00 | 0.00 | 0.00 | 49 | 871.3 |
| 20260503053004 | 54 | 281 | 0.0 | 0.0 | 0.00 | 0.00 | 0.00 | 54 | 871.3 |
| 20260503052004 | 55 | 281 | 0.0 | 0.0 | 0.00 | 0.00 | 0.00 | 54 | 871.3 |
| 20260503051004 | 55 | 281 | 0.0 | 0.0 | 0.00 | 0.00 | 0.00 | 55 | 871.3 |
| 20260503050004 | 55 | 281 | 0.0 | 0.0 | 0.00 | 0.00 | 0.00 | 56 | 871.3 |
| 20260503045004 | 56 | 281 | 0.0 | 0.0 | 0.00 | 0.00 | 0.00 | 57 | 871.3 |
| 20260503044004 | 56 | 281 | 0.0 | 0.0 | 0.00 | 0.00 | 0.00 | 58 | 871.3 |
| 20260503043004 | 56 | 281 | 0.0 | 0.0 | 0.00 | 0.00 | 0.00 | 58 | 871.3 |
| 20260503042004 | 57 | 281 | 0.0 | 2.0 | 0.00 | 0.00 | 0.00 | 58 | 871.3 |
| 20260503041004 | 57 | 281 | 0.0 | 3.0 | 0.00 | 0.00 | 0.00 | 59 | 871.3 |
| 20260503035003 | 58 | 282 | 1.0 | 6.0 | 0.00 | 0.00 | 0.00 | 62 | 871.3 |
| 20260503034004 | 59 | 274 | 3.0 | 9.0 | 0.00 | 0.00 | 0.00 | 63 | 871.3 |
| 20260503033004 | 59 | 271 | 3.0 | 10.0 | 0.00 | 0.00 | 0.00 | 64 | 871.3 |
| 20260503032004 | 60 | 292 | 1.0 | 12.0 | 0.00 | 0.00 | 0.00 | 65 | 871.3 |
| 20260503031004 | 61 | 314 | 2.0 | 9.0 | 0.00 | 0.00 | 0.00 | 66 | 871.3 |
| 20260503030004 | 61 | 290 | 2.0 | 10.0 | 0.00 | 0.00 | 0.00 | 66 | 871.3 |
| 20260503025004 | 62 | 291 | 1.0 | 10.0 | 0.00 | 0.00 | 0.00 | 65 | 880.1 |
| 20260503024004 | 63 | 307 | 4.0 | 12.0 | 0.00 | 0.00 | 0.00 | 65 | 887.9 |
| 20260503023004 | 64 | 309 | 2.0 | 7.0 | 0.00 | 0.00 | 0.00 | 64 | 887.9 |
| 20260503022004 | 65 | 301 | 3.0 | 9.0 | 0.00 | 0.00 | 0.00 | 64 | 887.9 |
| 20260503021004 | 66 | 288 | 1.0 | 10.0 | 0.00 | 0.00 | 0.00 | 63 | 887.9 |
| 20260503015003 | 68 | 301 | 4.0 | 12.0 | 0.00 | 0.00 | 0.00 | 61 | 887.9 |
| 20260503014003 | 69 | 313 | 3.0 | 13.0 | 0.00 | 0.00 | 0.00 | 60 | 887.9 |
| 20260503013004 | 70 | 294 | 4.0 | 15.0 | 0.00 | 0.00 | 0.00 | 59 | 887.9 |
| 20260503011004 | 72 | 283 | 6.0 | 14.0 | 0.00 | 0.00 | 0.00 | 56 | 1008.3 |
| 20260503010004 | 74 | 284 | 5.0 | 15.0 | 0.00 | 0.00 | 0.00 | 55 | 1008.3 |
| 20260503005004 | 75 | 293 | 7.0 | 13.0 | 0.00 | 0.00 | 0.00 | 55 | 1008.3 |
| 20260503004004 | 76 | 324 | 3.0 | 13.0 | 0.00 | 0.00 | 0.00 | 54 | 1008.3 |
| 20260503003004 | 76 | 306 | 7.0 | 13.0 | 0.00 | 0.00 | 0.00 | 55 | 1008.3 |
| 20260503002004 | 77 | 347 | 1.0 | 10.0 | 0.00 | 0.00 | 0.00 | 53 | 1008.3 |
| 20260503001004 | 77 | 294 | 3.0 | 12.0 | 0.00 | 0.00 | 0.00 | 53 | 1008.3 |
| 20260503000004 | 77 | 279 | 4.0 | 12.0 | 0.00 | 0.00 | 0.00 | 53 | 1008.3 |
| 20260502235004 | 77 | 295 | 0.0 | 7.0 | 0.00 | 0.00 | 0.00 | 53 | 1008.3 |
| 20260502234004 | 77 | 263 | 1.0 | 7.0 | 0.00 | 0.00 | 0.00 | 54 | 1008.3 |
| 20260502233004 | 77 | 231 | 1.0 | 7.0 | 0.00 | 0.00 | 0.00 | 54 | 1008.3 |
| 20260502231004 | 76 | 290 | 2.0 | 6.0 | 0.00 | 0.00 | 0.00 | 55 | 1008.3 |
| 20260502230004 | 76 | 320 | 1.0 | 6.0 | 0.00 | 0.00 | 0.00 | 55 | 1008.3 |
| 20260502225003 | 76 | 283 | 1.0 | 7.0 | 0.00 | 0.00 | 0.00 | 56 | 1008.3 |
| 20260502223004 | 75 | 300 | 0.0 | 7.0 | 0.00 | 0.00 | 0.00 | 58 | 1008.3 |
| 20260502222004 | 74 | 272 | 0.0 | 6.0 | 0.00 | 0.00 | 0.00 | 58 | 1008.3 |
| 20260502221004 | 74 | 319 | 5.0 | 10.0 | 0.00 | 0.00 | 0.00 | 58 | 1008.3 |
| 20260502220003 | 74 | 235 | 5.0 | 10.0 | 0.00 | 0.00 | 0.00 | 58 | 1008.3 |
| 20260502215004 | 74 | 273 | 4.0 | 12.0 | 0.00 | 0.00 | 0.00 | 59 | 1008.3 |
| 20260502214004 | 74 | 216 | 7.0 | 12.0 | 0.00 | 0.00 | 0.00 | 60 | 1008.3 |
| 20260502213004 | 74 | 233 | 2.0 | 12.0 | 0.00 | 0.00 | 0.00 | 60 | 1011.8 |
| 20260502212004 | 73 | 217 | 4.0 | 12.0 | 0.00 | 0.00 | 0.00 | 60 | 1011.8 |
| 20260502211004 | 72 | 230 | 3.0 | 9.0 | 0.00 | 0.00 | 0.00 | 60 | 1011.8 |
| 20260502210004 | 71 | 320 | 3.0 | 7.0 | 0.00 | 0.00 | 0.00 | 61 | 1011.8 |
| 20260502205004 | 71 | 243 | 6.0 | 12.0 | 0.00 | 0.00 | 0.00 | 61 | 887.3 |
| 20260502204004 | 69 | 248 | 3.0 | 12.0 | 0.00 | 0.00 | 0.00 | 62 | 887.3 |
| 20260502203004 | 69 | 239 | 2.0 | 13.0 | 0.00 | 0.00 | 0.00 | 62 | 859.4 |
| 20260502201004 | 69 | 222 | 2.0 | 14.0 | 0.00 | 0.00 | 0.00 | 61 | 888.6 |